Lid_Strength_Index
4 3 2 3 3 3 3 4 4 4 2 2 3 2 1 1 2 2 2 2 2 3 3 4 4 4 4 3 2 2 3 4 3 4 5 4 4 3 3 3 3 3 2
5 4 3 3 3 3 3 4 4 4 3 2 2 2 2 1 1 2 2 3 3 3 4 4 4 4 4 4 3 3 4 4 4 5 6 8 7 5 5 4 4 4 4
6 5 4 4 4 4 5 4 4 4 4 3 4 4 3 4 4 3 3 3 3 3 3 3 4 4 4 4 4 3 4 5 5 4 5 7 8 7 6 6 6 6 5
5 4 4 4 4 4 4 5 6 6 5 4 4 4 4 4 4 3 3 3 3 3 3 3 3 4 4 4 4 3 4 4 5 5 4 5 5 7 8 6 6 6 7
5 5 4 3 3 2 3 3 4 6 7 7 4 4 4 4 3 3 4 3 3 3 3 3 3 4 4 4 3 3 4 3 4 5 5 6 5 5 6 8 8 7 6
9 9 6 3 3 2 3 3 3 4 6 7 7 6 5 5 5 5 4 4 4 4 3 3 3 3 3 4 3 3 3 3 3 4 4 5 6 6 6 7 7 7 7
10 9 8 7 6 5 3 3 2 4 5 6 7 7 6 5 6 5 5 4 4 4 3 3 4 3 3 3 3 3 3 3 3 3 3 4 4 4 5 6 6 6 7
10 9 9 8 7 6 6 5 3 3 3 4 5 6 6 6 6 6 5 5 4 3 3 3 3 3 3 3 4 3 3 2 2 2 2 2 3 3 4 4 5 7 8
9 10 10 9 9 8 8 6 6 6 4 4 4 4 5 5 5 6 6 5 5 5 4 4 4 4 4 4 4 4 4 4 3 2 2 2 2 2 3 3 4 5 8
10 10 10 10 10 10 10 9 8 8 7 5 4 4 4 4 4 4 5 6 5 5 6 6 5 5 5 5 5 5 4 5 4 4 4 3 3 4 5 6 5 4 4
13 12 12 12 11 10 10 10 9 9 9 8 6 5 5 4 4 4 5 4 4 5 5 6 7 8 7 7 7 7 6 6 6 6 5 5 4 5 5 6 6 8 7
13 13 13 13 13 13 12 12 11 10 9 8 8 6 5 5 5 4 4 4 4 4 5 6 6 7 7 8 9 9 9 9 8 8 9 8 8 8 8 9 10 10 9
14 14 14 14 14 14 14 13 12 12 11 11 10 8 7 6 5 5 5 4 4 4 4 5 5 7 7 7 8 8 9 9 9 9 10 9 10 10 11 11 11 10 11
14 14 14 14 13 13 14 13 13 12 12 11 11 10 10 9 7 6 5 3 2 2 3 4 6 6 6 6 7 8 9 9 8 10 10 11 11 11 11 11 11 11 11
15 15 15 14 14 14 13 13 13 12 12 12 12 11 10 9 9 8 8 6 4 3 2 2 2 4 5 6 8 8 9 9 10 9 10 10 10 10 11 11 11 12 11
16 16 15 15 14 14 14 13 14 13 13 13 12 11 11 11 10 9 8 7 7 6 4 3 3 3 4 5 5 5 7 8 8 10 10 10 9 10 9 9 10 11 12
17 16 16 15 15 14 14 14 14 13 13 13 13 12 12 12 11 11 10 9 8 7 6 5 5 5 5 5 5 5 6 8 9 9 10 11 10 9 9 9 8 8 8
17 16 16 15 15 14 14 14 13 13 13 13 13 12 12 12 12 11 11 10 9 8 7 6 5 4 5 6 6 6 7 9 9 9 10 10 10 9 9 9 10 10 10
16 16 15 15 15 15 14 14 14 14 14 13 13 13 13 12 12 12 11 10 9 8 7 7 6 5 4 5 5 6 7 9 10 10 10 11 11 9 9 11 12 12 11
16 16 15 15 15 15 14 15 15 14 14 13 13 12 12 12 12 12 12 10 10 9 8 8 7 6 5 5 5 5 7 9 9 10 10 9 10 9 9 12 13 13 12
16 15 15 15 15 14 14 15 14 14 14 13 13 13 12 12 11 11 11 11 11 11 10 9 8 7 6 5 5 5 6 8 9 10 10 10 9 9 8 10 12 12 11
15 15 15 15 14 14 14 14 14 13 13 12 12 12 12 12 12 11 11 11 11 11 11 10 9 7 6 6 5 5 5 6 9 10 10 9 8 8 8 10 10 10 10
15 14 14 14 13 13 13 14 13 12 12 12 11 10 10 10 9 10 9 10 10 11 11 10 10 9 7 7 6 5 5 5 8 9 9 8 7 7 8 9 9 10 12
15 14 14 14 13 11 11 10 10 9 10 10 9 9 9 8 8 8 7 8 8 9 9 9 9 9 8 8 7 7 5 5 6 8 9 8 8 7 9 10 10 11 12
13 12 12 12 11 11 10 10 9 9 10 10 10 9 8 8 8 7 7 7 7 6 6 7 7 8 8 8 7 7 7 6 7 9 10 10 10 11 11 12 11 12 13
11 11 11 11 11 11 11 10 9 9 10 11 10 9 9 8 8 8 8 6 6 5 5 3 4 4 4 4 5 5 5 5 7 10 11 11 11 11 11 12 13 14 14